,,Stat6,,Stat2,,Stat8,,Stat9,,Stat10,,Wind1,,Wind1,
time,status,PA1M_AVG,status,PR1M_SUM,status,RH1M_AVG,status,SR1M_AVG,status,TA1M_AVG,status,W1dAve1m,status,W1sAve1m,
2007-05-07, 00:00:00,VALID,917.669,VALID,0,VALID,97.8055,VALID,-0.0339617,VALID,20.4694,VALID,311,VALID,0.194531,
2007-05-07, 00:01:00,VALID,917.66,VALID,0,VALID,97.9682,VALID,0,VALID,20.4624,VALID,311,VALID,0.000571646,
2007-05-07, 00:02:00,VALID,917.66,VALID,0,VALID,98.0547,VALID,-0.0679233,VALID,20.4729,VALID,311,VALID,0.0369141,
2007-05-07, 00:03:00,VALID,917.661,VALID,0,VALID,98.145,VALID,-0.0509425,VALID,20.4732,VALID,311,VALID,0,
2007-05-07, 00:04:00,VALID,917.67,VALID,0,VALID,98.3039,VALID,-0.0169808,VALID,20.4794,VALID,311,VALID,0,
2007-05-07, 00:05:00,VALID,917.673,VALID,0,VALID,98.3968,VALID,-0.0679233,VALID,20.4891,VALID,311,VALID,0.00999273,
2007-05-07, 00:06:00,VALID,917.671,VALID,0,VALID,98.454,VALID,-0.0509425,VALID,20.5118,VALID,311,VALID,0.00585938,
2007-05-07, 00:07:00,VALID,917.669,VALID,0,VALID,98.4514,VALID,-0.0339617,VALID,20.5116,VALID,311,VALID,0.228566,
2007-05-07, 00:08:00,VALID,917.666,VALID,0,VALID,98.3014,VALID,-0.0339617,VALID,20.5151,VALID,311,VALID,0.152257,
2007-05-07, 00:09:00,VALID,917.67,VALID,0,VALID,98.3484,VALID,-0.0169808,VALID,20.5146,VALID,311,VALID,0.240854,
2007-05-07, 00:10:00,VALID,917.66,VALID,0,VALID,98.3434,VALID,-0.0509425,VALID,20.5348,VALID,311,VALID,0.251758,
2007-05-07, 00:11:00,VALID,917.654,VALID,0,VALID,98.4578,VALID,-0.0339617,VALID,20.5086,VALID,311,VALID,0.339753,
2007-05-07, 00:12:00,VALID,917.646,VALID,0,VALID,98.6396,VALID,-0.0509425,VALID,20.4891,VALID,311,VALID,0.172805,
2007-05-07, 00:13:00,VALID,917.656,VALID,0,VALID,98.8711,VALID,0,VALID,20.4894,VALID,311,VALID,0.0744792,
2007-05-07, 00:14:00,VALID,917.644,VALID,0,VALID,98.9525,VALID,-0.0339617,VALID,20.4697,VALID,311,VALID,0.405678,
2007-05-07, 00:15:00,VALID,917.618,VALID,0,VALID,98.6854,VALID,-0.0509425,VALID,20.4307,VALID,301,VALID,0.530869,
2007-05-07, 00:16:00,VALID,917.61,VALID,0,VALID,98.5684,VALID,-0.0509425,VALID,20.3923,VALID,300,VALID,0.173692,
2007-05-07, 00:17:00,VALID,917.594,VALID,0,VALID,98.9842,VALID,-0.0339617,VALID,20.4207,VALID,300,VALID,0.293445,
2007-05-07, 00:18:00,VALID,917.588,VALID,0,VALID,99.1534,VALID,-0.0509425,VALID,20.4472,VALID,301,VALID,0.172637,
2007-05-07, 00:19:00,VALID,917.588,VALID,0,VALID,99.2347,VALID,-0.101885,VALID,20.4634,VALID,301,VALID,0.270693,
2007-05-07, 00:20:00,VALID,917.576,VALID,0,VALID,99.1737,VALID,-0.0509425,VALID,20.4602,VALID,301,VALID,0.232244,
2007-05-07, 00:21:00,VALID,917.585,VALID,0,VALID,99.3072,VALID,-0.0509425,VALID,20.4599,VALID,301,VALID,0.0655488,
2007-05-07, 00:22:00,VALID,917.582,VALID,0,VALID,99.3734,VALID,-0.101885,VALID,20.4569,VALID,301,VALID,0.0990767,
2007-05-07, 00:23:00,VALID,917.562,VALID,0,VALID,99.4458,VALID,-0.0509425,VALID,20.4599,VALID,301,VALID,0.0990767,
2007-05-07, 00:24:00,VALID,917.557,VALID,0,VALID,99.395,VALID,-0.0509425,VALID,20.4569,VALID,301,VALID,0.0721726,
2007-05-07, 00:25:00,VALID,917.536,VALID,0,VALID,99.4369,VALID,-0.101885,VALID,20.4375,VALID,301,VALID,0.0414807,
2007-05-07, 00:26:00,VALID,917.514,VALID,0,VALID,99.5692,VALID,-0.0679233,VALID,20.4277,VALID,301,VALID,0.0893674,
2007-05-07, 00:27:00,VALID,917.494,VALID,0,VALID,99.6378,VALID,-0.0339617,VALID,20.421,VALID,301,VALID,0.191584,
2007-05-07, 00:28:00,VALID,917.473,VALID,0,VALID,99.765,VALID,-0.0849042,VALID,20.4212,VALID,301,VALID,0.123547,
2007-05-07, 00:29:00,VALID,917.447,VALID,0,VALID,99.826,VALID,-0.0509425,VALID,20.4242,VALID,301,VALID,0,
2007-05-07, 00:30:00,VALID,917.44,VALID,0,VALID,99.9125,VALID,-0.0849042,VALID,20.428,VALID,301,VALID,0.00117188,
2007-05-07, 00:31:00,VALID,917.417,VALID,0,VALID,99.9804,VALID,-0.0849042,VALID,20.4277,VALID,301,VALID,0.0918899,
2007-05-07, 00:32:00,VALID,917.401,VALID,0,VALID,99.9423,VALID,-0.0679233,VALID,20.4307,VALID,301,VALID,0.158203,
2007-05-07, 00:33:00,VALID,917.374,VALID,0,VALID,99.7739,VALID,-0.0849042,VALID,20.4217,VALID,301,VALID,0.231534,
2007-05-07, 00:34:00,VALID,917.369,VALID,0,VALID,99.5781,VALID,-0.0509425,VALID,20.3885,VALID,301,VALID,0.353051,
2007-05-07, 00:35:00,VALID,917.367,VALID,0,VALID,99.545,VALID,-0.0509425,VALID,20.3728,VALID,335,VALID,0.368823,
2007-05-07, 00:36:00,VALID,917.368,VALID,0,VALID,99.2258,VALID,-0.0679233,VALID,20.3401,VALID,17,VALID,0.23247,
2007-05-07, 00:37:00,VALID,917.368,VALID,0,VALID,99.0733,VALID,-0.0509425,VALID,20.3206,VALID,17,VALID,0.0445668,
2007-05-07, 00:38:00,VALID,917.367,VALID,0,VALID,99.0211,VALID,-0.0169808,VALID,20.3239,VALID,17,VALID,0,
2007-05-07, 00:39:00,VALID,917.36,VALID,0,VALID,98.66,VALID,-0.0679233,VALID,20.3141,VALID,17,VALID,0.0289418,
2007-05-07, 00:40:00,VALID,917.354,VALID,0,VALID,98.5977,VALID,-0.0509425,VALID,20.3241,VALID,17,VALID,0.0953852,
2007-05-07, 00:41:00,VALID,917.345,VALID,0,VALID,98.3739,VALID,-0.0509425,VALID,20.3076,VALID,17,VALID,0,
2007-05-07, 00:42:00,VALID,917.331,VALID,0,VALID,98.4018,VALID,-0.0679233,VALID,20.3044,VALID,17,VALID,0.0412946,
2007-05-07, 00:43:00,VALID,917.325,VALID,0,VALID,98.3535,VALID,-0.0679233,VALID,20.2814,VALID,17,VALID,0.251906,
2007-05-07, 00:44:00,VALID,917.299,VALID,0,VALID,98.4489,VALID,-0.0849042,VALID,20.2652,VALID,17,VALID,0,
2007-05-07, 00:45:00,VALID,917.267,VALID,0,VALID,98.4502,VALID,-0.0849042,VALID,20.249,VALID,17,VALID,0,
2007-05-07, 00:46:00,VALID,917.248,VALID,0,VALID,98.4807,VALID,-0.0509425,VALID,20.2457,VALID,17,VALID,0.0012429,
2007-05-07, 00:47:00,VALID,917.219,VALID,0,VALID,98.5163,VALID,-0.0339617,VALID,20.2557,VALID,17,VALID,0,
2007-05-07, 00:48:00,VALID,917.199,VALID,0,VALID,98.2251,VALID,-0.0849042,VALID,20.2492,VALID,17,VALID,0.201758,
2007-05-07, 00:49:00,VALID,917.168,VALID,0,VALID,97.8919,VALID,-0.0679233,VALID,20.2427,VALID,17,VALID,0.00416667,
2007-05-07, 00:50:00,VALID,917.151,VALID,0,VALID,97.6808,VALID,-0.0509425,VALID,20.2135,VALID,17,VALID,0,
2007-05-07, 00:51:00,VALID,917.13,VALID,0,VALID,97.4532,VALID,-0.0849042,VALID,20.1873,VALID,17,VALID,0.00109012,
2007-05-07, 00:52:00,VALID,917.105,VALID,0,VALID,97.5448,VALID,-0.0509425,VALID,20.187,VALID,17,VALID,0.00133384,
2007-05-07, 00:53:00,VALID,917.093,VALID,0,VALID,97.56,VALID,-0.0679233,VALID,20.1876,VALID,17,VALID,0,
2007-05-07, 00:54:00,VALID,917.078,VALID,0,VALID,97.6796,VALID,-0.0509425,VALID,20.1876,VALID,17,VALID,0.0149148,
2007-05-07, 00:55:00,VALID,917.072,VALID,0,VALID,97.6313,VALID,-0.0509425,VALID,20.1811,VALID,17,VALID,0.0261052,
2007-05-07, 00:56:00,VALID,917.064,VALID,0,VALID,97.5244,VALID,-0.0679233,VALID,20.1651,VALID,17,VALID,0.0682292,
2007-05-07, 00:57:00,VALID,917.057,VALID,0,VALID,97.4392,VALID,-0.0679233,VALID,20.1486,VALID,5,VALID,0.354353,
2007-05-07, 00:58:00,VALID,917.048,VALID,0,VALID,97.3261,VALID,-0.0679233,VALID,20.1197,VALID,221,VALID,0.669965,
2007-05-07, 00:59:00,VALID,917.017,VALID,0,VALID,97.2739,VALID,0,VALID,20.073,VALID,221,VALID,0.561592,
2007-05-07, 01:00:00,VALID,917.001,VALID,0,VALID,97.265,VALID,0.0169808,VALID,20.0467,VALID,221,VALID,0.445676,
2007-05-07, 01:01:00,VALID,916.969,VALID,0,VALID,97.2828,VALID,-0.101885,VALID,19.9993,VALID,220,VALID,0.351162,
2007-05-07, 01:02:00,VALID,916.947,VALID,0,VALID,97.3591,VALID,-0.0849042,VALID,19.9734,VALID,211,VALID,0.49891,
2007-05-07, 01:03:00,VALID,916.925,VALID,0,VALID,97.4342,VALID,-0.0849042,VALID,19.9472,VALID,182,VALID,0.821403,
2007-05-07, 01:04:00,VALID,916.892,VALID,0,VALID,97.485,VALID,-0.0849042,VALID,19.9244,VALID,179,VALID,0.73473,
2007-05-07, 01:05:00,VALID,916.866,VALID,0,VALID,97.6605,VALID,-0.101885,VALID,19.9022,VALID,179,VALID,0.530859,
2007-05-07, 01:06:00,VALID,916.855,VALID,0,VALID,97.9199,VALID,-0.0679233,VALID,19.879,VALID,179,VALID,0.359553,
2007-05-07, 01:07:00,VALID,916.859,VALID,0,VALID,98.0178,VALID,-0.0679233,VALID,19.8595,VALID,179,VALID,0.12843,
2007-05-07, 01:08:00,VALID,916.871,VALID,0,VALID,98.1323,VALID,-0.0849042,VALID,19.8341,VALID,128,VALID,0.308498,
2007-05-07, 01:09:00,VALID,916.884,VALID,0,VALID,98.0077,VALID,-0.0849042,VALID,19.7819,VALID,105,VALID,0.176563,
2007-05-07, 01:10:00,VALID,916.9,VALID,0,VALID,98.0191,VALID,-0.0849042,VALID,19.7138,VALID,105,VALID,0.185865,
2007-05-07, 01:11:00,VALID,916.904,VALID,0,VALID,98.5112,VALID,-0.0509425,VALID,19.7008,VALID,105,VALID,0.184896,
2007-05-07, 01:12:00,VALID,916.904,VALID,0,VALID,98.6918,VALID,-0.0849042,VALID,19.704,VALID,105,VALID,0.000195313,
2007-05-07, 01:13:00,VALID,916.905,VALID,0,VALID,98.8673,VALID,-0.0679233,VALID,19.701,VALID,105,VALID,0.331759,
2007-05-07, 01:14:00,VALID,916.914,VALID,0,VALID,99.3149,VALID,-0.0849042,VALID,19.717,VALID,131,VALID,0.607465,
2007-05-07, 01:15:00,VALID,916.911,VALID,0,VALID,99.3276,VALID,-0.0849042,VALID,19.7268,VALID,132,VALID,0.476744,
2007-05-07, 01:16:00,VALID,916.91,VALID,0,VALID,99.2971,VALID,-0.0679233,VALID,19.7168,VALID,132,VALID,0.317294,
2007-05-07, 01:17:00,VALID,916.912,VALID,0,VALID,99.353,VALID,-0.118866,VALID,19.7138,VALID,132,VALID,0.39027,
2007-05-07, 01:18:00,VALID,916.922,VALID,0,VALID,99.381,VALID,-0.0509425,VALID,19.7205,VALID,133,VALID,0.507241,
2007-05-07, 01:19:00,VALID,916.928,VALID,0,VALID,99.3352,VALID,-0.0849042,VALID,19.7103,VALID,139,VALID,0.547965,
2007-05-07, 01:20:00,VALID,916.926,VALID,0,VALID,99.3263,VALID,-0.0849042,VALID,19.6943,VALID,144,VALID,0.605283,
2007-05-07, 01:21:00,VALID,916.927,VALID,0,VALID,99.4026,VALID,-0.101885,VALID,19.6651,VALID,147,VALID,0.648256,
2007-05-07, 01:22:00,VALID,916.931,VALID,0,VALID,99.5387,VALID,-0.0509425,VALID,19.6551,VALID,144,VALID,0.454942,
2007-05-07, 01:23:00,VALID,916.938,VALID,0,VALID,99.7892,VALID,-0.0849042,VALID,19.6586,VALID,142,VALID,0.473514,
2007-05-07, 01:24:00,VALID,916.951,VALID,0,VALID,99.8527,VALID,-0.0339617,VALID,19.6551,VALID,142,VALID,0.212109,
2007-05-07, 01:25:00,VALID,916.949,VALID,0,VALID,99.9705,VALID,-0.0339617,VALID,19.6449,VALID,142,VALID,0.311967,
2007-05-07, 01:26:00,VALID,916.96,VALID,0,VALID,99.9977,VALID,-0.0169808,VALID,19.6317,VALID,142,VALID,0.114769,
2007-05-07, 01:27:00,VALID,916.954,VALID,0,VALID,100,VALID,-0.0339617,VALID,19.6319,VALID,142,VALID,0.302269,
2007-05-07, 01:28:00,VALID,916.952,VALID,0,VALID,100,VALID,-0.0169808,VALID,19.6354,VALID,142,VALID,0.389205,
2007-05-07, 01:29:00,VALID,916.951,VALID,0,VALID,100,VALID,-0.0169808,VALID,19.6219,VALID,142,VALID,0.0588942,
2007-05-07, 01:30:00,VALID,916.958,VALID,0,VALID,100,VALID,-0.0169808,VALID,19.6324,VALID,142,VALID,0.0348558,
2007-05-07, 01:31:00,VALID,916.96,VALID,0,VALID,100,VALID,-0.0169808,VALID,19.6219,VALID,142,VALID,0.0552202,
2007-05-07, 01:32:00,VALID,916.954,VALID,0,VALID,100,VALID,-0.0509425,VALID,19.6152,VALID,142,VALID,0,
2007-05-07, 01:33:00,VALID,916.937,VALID,0,VALID,100,VALID,-0.0509425,VALID,19.6062,VALID,142,VALID,0,
2007-05-07, 01:34:00,VALID,916.931,VALID,0,VALID,100,VALID,-0.0339617,VALID,19.6,VALID,142,VALID,0,
2007-05-07, 01:35:00,VALID,916.918,VALID,0,VALID,100,VALID,-0.0339617,VALID,19.5835,VALID,142,VALID,0,
2007-05-07, 01:36:00,VALID,916.904,VALID,0,VALID,99.7917,VALID,-0.0509425,VALID,19.5378,VALID,142,VALID,0,
2007-05-07, 01:37:00,VALID,916.899,VALID,0,VALID,99.3899,VALID,-0.0679233,VALID,19.4762,VALID,142,VALID,0,
2007-05-07, 01:38:00,VALID,916.89,VALID,0,VALID,99.2475,VALID,-0.0679233,VALID,19.4113,VALID,142,VALID,0.0827753,
2007-05-07, 01:39:00,VALID,916.88,VALID,0,VALID,99.2831,VALID,-0.0169808,VALID,19.3891,VALID,142,VALID,0,
2007-05-07, 01:40:00,VALID,916.881,VALID,0,VALID,99.353,VALID,-0.0679233,VALID,19.3626,VALID,142,VALID,0,
2007-05-07, 01:41:00,VALID,916.874,VALID,0,VALID,99.5539,VALID,-0.0849042,VALID,19.3559,VALID,142,VALID,0.0321584,
2007-05-07, 01:42:00,VALID,916.875,VALID,0,VALID,99.5921,VALID,-0.0339617,VALID,19.3397,VALID,142,VALID,0.0540707,
2007-05-07, 01:43:00,VALID,916.868,VALID,0,VALID,99.7408,VALID,-0.0509425,VALID,19.3434,VALID,142,VALID,0,
2007-05-07, 01:44:00,VALID,916.869,VALID,0,VALID,99.84,VALID,-0.0679233,VALID,19.3434,VALID,142,VALID,0.0314405,
2007-05-07, 01:45:00,VALID,916.882,VALID,0,VALID,99.9491,VALID,-0.0509425,VALID,19.3432,VALID,142,VALID,0.287609,
2007-05-07, 01:46:00,VALID,916.865,VALID,0,VALID,100,VALID,-0.0509425,VALID,19.3726,VALID,142,VALID,0.34358,
2007-05-07, 01:47:00,VALID,916.859,VALID,0,VALID,99.9926,VALID,-0.0679233,VALID,19.3367,VALID,128,VALID,0.503125,
2007-05-07, 01:48:00,VALID,916.839,VALID,0,VALID,100,VALID,-0.0679233,VALID,19.3698,VALID,108,VALID,0.730183,
2007-05-07, 01:49:00,VALID,916.826,VALID,0,VALID,100,VALID,-0.0169808,VALID,19.4018,VALID,107,VALID,0.436914,
2007-05-07, 01:50:00,VALID,916.799,VALID,0,VALID,100,VALID,-0.0339617,VALID,19.4115,VALID,107,VALID,0.119141,
2007-05-07, 01:51:00,VALID,916.761,VALID,0,VALID,100,VALID,-0.0169808,VALID,19.4108,VALID,107,VALID,0,
2007-05-07, 01:52:00,VALID,916.729,VALID,0,VALID,100,VALID,-0.0169808,VALID,19.4113,VALID,107,VALID,0.0376603,
2007-05-07, 01:53:00,VALID,916.703,VALID,0,VALID,100,VALID,0,VALID,19.3978,VALID,107,VALID,0.138672,
2007-05-07, 01:54:00,VALID,916.694,VALID,0,VALID,100,VALID,-0.0339617,VALID,19.4278,VALID,107,VALID,0.406055,
2007-05-07, 01:55:00,VALID,916.666,VALID,0,VALID,100,VALID,-0.0169808,VALID,19.4138,VALID,108,VALID,0.505716,
2007-05-07, 01:56:00,VALID,916.658,VALID,0,VALID,100,VALID,0,VALID,19.431,VALID,108,VALID,0.699396,
2007-05-07, 01:57:00,VALID,916.638,VALID,0,VALID,100,VALID,-0.0169808,VALID,19.4497,VALID,108,VALID,0.763445,
2007-05-07, 01:58:00,VALID,916.622,VALID,0,VALID,100,VALID,-0.0169808,VALID,19.4205,VALID,109,VALID,0.735709,
2007-05-07, 01:59:00,VALID,916.606,VALID,0,VALID,100,VALID,-0.0679233,VALID,19.3988,VALID,119,VALID,0.813227,
2007-05-07, 02:00:00,VALID,916.598,VALID,0,VALID,100,VALID,-0.135847,VALID,19.3861,VALID,121,VALID,0.610305,
2007-05-07, 02:01:00,VALID,916.592,VALID,0,VALID,100,VALID,-0.118866,VALID,19.3698,VALID,128,VALID,0.43859,
2007-05-07, 02:02:00,VALID,916.568,VALID,0,VALID,100,VALID,-0.101885,VALID,19.3833,VALID,156,VALID,0.536914,
2007-05-07, 02:03:00,VALID,916.555,VALID,0,VALID,100,VALID,-0.101885,VALID,19.3768,VALID,152,VALID,0.574124,
2007-05-07, 02:04:00,VALID,916.538,VALID,0,VALID,100,VALID,-0.118866,VALID,19.3801,VALID,144,VALID,0.83327,
2007-05-07, 02:05:00,VALID,916.52,VALID,0,VALID,100,VALID,-0.101885,VALID,19.3766,VALID,144,VALID,0.931021,
2007-05-07, 02:06:00,VALID,916.5,VALID,0,VALID,100,VALID,-0.118866,VALID,19.3866,VALID,144,VALID,1.06055,
2007-05-07, 02:07:00,VALID,916.45,VALID,0,VALID,100,VALID,-0.135847,VALID,19.4125,VALID,143,VALID,1.07459,
2007-05-07, 02:08:00,VALID,916.429,VALID,0,VALID,100,VALID,-0.118866,VALID,19.412,VALID,147,VALID,0.954033,
2007-05-07, 02:09:00,VALID,916.394,VALID,0,VALID,100,VALID,-0.152827,VALID,19.435,VALID,150,VALID,1.19188,
2007-05-07, 02:10:00,VALID,916.368,VALID,0,VALID,100,VALID,-0.101885,VALID,19.4218,VALID,149,VALID,1.22452,
2007-05-07, 02:11:00,VALID,916.33,VALID,0,VALID,100,VALID,-0.135847,VALID,19.416,VALID,151,VALID,1.00178,
2007-05-07, 02:12:00,VALID,916.296,VALID,0,VALID,100,VALID,-0.0849042,VALID,19.412,VALID,147,VALID,1.26376,
2007-05-07, 02:13:00,VALID,916.268,VALID,0,VALID,100,VALID,-0.101885,VALID,19.4088,VALID,146,VALID,0.949855,
2007-05-07, 02:14:00,VALID,916.234,VALID,0,VALID,100,VALID,-0.0169808,VALID,19.3978,VALID,144,VALID,0.977307,
2007-05-07, 02:15:00,VALID,916.192,VALID,0,VALID,100,VALID,-0.0169808,VALID,19.3781,VALID,149,VALID,0.949805,
2007-05-07, 02:16:00,VALID,916.175,VALID,0,VALID,100,VALID,-0.0679233,VALID,19.3724,VALID,153,VALID,1.10813,
2007-05-07, 02:17:00,VALID,916.157,VALID,0,VALID,100,VALID,-0.0339617,VALID,19.3654,VALID,149,VALID,1.12557,
2007-05-07, 02:18:00,VALID,916.121,VALID,0,VALID,100,VALID,-0.0169808,VALID,19.3621,VALID,145,VALID,1.21951,
2007-05-07, 02:19:00,VALID,916.108,VALID,0,VALID,100,VALID,0,VALID,19.3716,VALID,141,VALID,1.29045,
2007-05-07, 02:20:00,VALID,916.082,VALID,0,VALID,100,VALID,-0.0169808,VALID,19.3983,VALID,141,VALID,1.14676,
2007-05-07, 02:21:00,VALID,916.079,VALID,0,VALID,100,VALID,-0.0169808,VALID,19.4105,VALID,139,VALID,1.20636,
2007-05-07, 02:22:00,VALID,916.07,VALID,0,VALID,100,VALID,0,VALID,19.4173,VALID,144,VALID,1.03385,
2007-05-07, 02:23:00,VALID,916.06,VALID,0,VALID,100,VALID,-0.0169808,VALID,19.4495,VALID,139,VALID,1.14118,
2007-05-07, 02:24:00,VALID,916.056,VALID,0,VALID,100,VALID,0.0169808,VALID,19.45,VALID,135,VALID,1.18516,
2007-05-07, 02:25:00,VALID,916.047,VALID,0,VALID,100,VALID,0,VALID,19.4397,VALID,134,VALID,1.19774,
2007-05-07, 02:26:00,VALID,916.045,VALID,0,VALID,100,VALID,-0.0339617,VALID,19.4305,VALID,130,VALID,1.10538,
2007-05-07, 02:27:00,VALID,916.051,VALID,0,VALID,100,VALID,-0.0169808,VALID,19.4275,VALID,129,VALID,1.0934,
2007-05-07, 02:28:00,VALID,916.041,VALID,0,VALID,100,VALID,0,VALID,19.4073,VALID,113,VALID,0.903646,
2007-05-07, 02:29:00,VALID,916.042,VALID,0,VALID,100,VALID,0.0169808,VALID,19.414,VALID,125,VALID,0.90734,
2007-05-07, 02:30:00,VALID,916.035,VALID,0,VALID,100,VALID,0,VALID,19.4041,VALID,126,VALID,0.965843,
2007-05-07, 02:31:00,VALID,916.034,VALID,0,VALID,100,VALID,-0.0169808,VALID,19.4103,VALID,125,VALID,1.06555,
2007-05-07, 02:32:00,VALID,916.03,VALID,0,VALID,100,VALID,-0.0169808,VALID,19.4143,VALID,129,VALID,1.07493,
2007-05-07, 02:33:00,VALID,916.031,VALID,0,VALID,100,VALID,-0.0169808,VALID,19.4073,VALID,134,VALID,1.06854,
2007-05-07, 02:34:00,VALID,916.033,VALID,0,VALID,100,VALID,-0.0679233,VALID,19.4203,VALID,136,VALID,1.21735,
2007-05-07, 02:35:00,VALID,916.042,VALID,0,VALID,100,VALID,0,VALID,19.4235,VALID,136,VALID,1.1282,
2007-05-07, 02:36:00,VALID,916.063,VALID,0,VALID,100,VALID,-0.0339617,VALID,19.4235,VALID,132,VALID,1.16921,
2007-05-07, 02:37:00,VALID,916.097,VALID,0,VALID,100,VALID,-0.0169808,VALID,19.4397,VALID,131,VALID,1.22693,
2007-05-07, 02:38:00,VALID,916.102,VALID,0,VALID,100,VALID,-0.0169808,VALID,19.453,VALID,124,VALID,0.923177,
2007-05-07, 02:39:00,VALID,916.114,VALID,0,VALID,100,VALID,-0.0169808,VALID,19.44,VALID,123,VALID,0.948438,
2007-05-07, 02:40:00,VALID,916.133,VALID,0,VALID,100,VALID,0.0169808,VALID,19.4333,VALID,124,VALID,0.904762,
2007-05-07, 02:41:00,VALID,916.137,VALID,0,VALID,100,VALID,-0.0169808,VALID,19.417,VALID,122,VALID,0.776526,
2007-05-07, 02:42:00,VALID,916.146,VALID,0,VALID,100,VALID,0,VALID,19.4173,VALID,122,VALID,0.852471,
2007-05-07, 02:43:00,VALID,916.138,VALID,0,VALID,100,VALID,-0.0169808,VALID,19.4105,VALID,130,VALID,1.12233,
2007-05-07, 02:44:00,VALID,916.133,VALID,0,VALID,100,VALID,-0.0169808,VALID,19.4208,VALID,136,VALID,1.31577,
2007-05-07, 02:45:00,VALID,916.122,VALID,0,VALID,100,VALID,0,VALID,19.4497,VALID,135,VALID,1.33129,
2007-05-07, 02:46:00,VALID,916.135,VALID,0,VALID,100,VALID,-0.0169808,VALID,19.4562,VALID,140,VALID,1.41264,
2007-05-07, 02:47:00,VALID,916.138,VALID,0,VALID,100,VALID,-0.0509425,VALID,19.4462,VALID,134,VALID,1.03561,
2007-05-07, 02:48:00,VALID,916.144,VALID,0,VALID,100,VALID,-0.0169808,VALID,19.443,VALID,148,VALID,0.75327,
2007-05-07, 02:49:00,VALID,916.141,VALID,0,VALID,100,VALID,-0.0169808,VALID,19.4333,VALID,145,VALID,0.848292,
2007-05-07, 02:50:00,VALID,916.143,VALID,0,VALID,100,VALID,-0.0169808,VALID,19.4235,VALID,148,VALID,1.03034,
2007-05-07, 02:51:00,VALID,916.151,VALID,0,VALID,100,VALID,0,VALID,19.414,VALID,146,VALID,1.0002,
2007-05-07, 02:52:00,VALID,916.152,VALID,0,VALID,100,VALID,0,VALID,19.3911,VALID,151,VALID,1.0646,
2007-05-07, 02:53:00,VALID,916.139,VALID,0,VALID,100,VALID,-0.0509425,VALID,19.3689,VALID,150,VALID,0.977539,
2007-05-07, 02:54:00,VALID,916.131,VALID,0,VALID,100,VALID,-0.0169808,VALID,19.3392,VALID,159,VALID,1.01054,
2007-05-07, 02:55:00,VALID,916.127,VALID,0,VALID,100,VALID,-0.0339617,VALID,19.3334,VALID,150,VALID,0.922602,
2007-05-07, 02:56:00,VALID,916.115,VALID,0,VALID,100,VALID,-0.0169808,VALID,19.3329,VALID,143,VALID,0.921474,
2007-05-07, 02:57:00,VALID,916.108,VALID,0,VALID,100,VALID,-0.0169808,VALID,19.3362,VALID,137,VALID,0.906068,
2007-05-07, 02:58:00,VALID,916.099,VALID,0,VALID,100,VALID,-0.0339617,VALID,19.3496,VALID,132,VALID,1.08267,
2007-05-07, 02:59:00,VALID,916.092,VALID,0,VALID,100,VALID,-0.0169808,VALID,19.3457,VALID,128,VALID,0.714177,
2007-05-07, 03:00:00,VALID,916.1,VALID,0,VALID,100,VALID,-0.0509425,VALID,19.3299,VALID,128,VALID,0.697359,
2007-05-07, 03:01:00,VALID,916.109,VALID,0,VALID,100,VALID,0,VALID,19.3297,VALID,127,VALID,0.639898,
2007-05-07, 03:02:00,VALID,916.111,VALID,0,VALID,100,VALID,-0.0509425,VALID,19.3362,VALID,127,VALID,0.768895,
2007-05-07, 03:03:00,VALID,916.131,VALID,0,VALID,100,VALID,-0.0339617,VALID,19.3459,VALID,127,VALID,0.888765,
2007-05-07, 03:04:00,VALID,916.162,VALID,0,VALID,100,VALID,0,VALID,19.3489,VALID,124,VALID,0.884487,
2007-05-07, 03:05:00,VALID,916.188,VALID,0,VALID,100,VALID,0,VALID,19.3522,VALID,123,VALID,0.906428,
2007-05-07, 03:06:00,VALID,916.207,VALID,0,VALID,100,VALID,-0.0169808,VALID,19.3716,VALID,122,VALID,0.544331,
2007-05-07, 03:07:00,VALID,916.23,VALID,0,VALID,100,VALID,-0.0169808,VALID,19.4008,VALID,122,VALID,0.596294,
2007-05-07, 03:08:00,VALID,916.222,VALID,0,VALID,100,VALID,-0.0169808,VALID,19.4235,VALID,122,VALID,0.388338,
2007-05-07, 03:09:00,VALID,916.217,VALID,0,VALID,100,VALID,0,VALID,19.4427,VALID,122,VALID,0.617551,
2007-05-07, 03:10:00,VALID,916.214,VALID,0,VALID,100,VALID,0,VALID,19.4722,VALID,122,VALID,0.330673,
2007-05-07, 03:11:00,VALID,916.187,VALID,0,VALID,100,VALID,-0.0169808,VALID,19.5014,VALID,123,VALID,0.275036,
2007-05-07, 03:12:00,VALID,916.171,VALID,0,VALID,100,VALID,-0.0169808,VALID,19.5343,VALID,124,VALID,0.228561,
2007-05-07, 03:13:00,VALID,916.169,VALID,0,VALID,100,VALID,-0.0169808,VALID,19.5468,VALID,132,VALID,0.510861,
2007-05-07, 03:14:00,VALID,916.151,VALID,0,VALID,100,VALID,-0.0169808,VALID,19.5763,VALID,151,VALID,0.630095,
2007-05-07, 03:15:00,VALID,916.138,VALID,0,VALID,100,VALID,-0.0169808,VALID,19.5922,VALID,151,VALID,0.627477,
2007-05-07, 03:16:00,VALID,916.132,VALID,0,VALID,100,VALID,-0.0509425,VALID,19.6157,VALID,151,VALID,0.804688,
2007-05-07, 03:17:00,VALID,916.13,VALID,0,VALID,100,VALID,0,VALID,19.6449,VALID,145,VALID,0.694169,
2007-05-07, 03:18:00,VALID,916.121,VALID,0,VALID,100,VALID,-0.0169808,VALID,19.6349,VALID,147,VALID,0.729936,
2007-05-07, 03:19:00,VALID,916.104,VALID,0,VALID,100,VALID,-0.0169808,VALID,19.6247,VALID,142,VALID,0.699405,
2007-05-07, 03:20:00,VALID,916.106,VALID,0,VALID,100,VALID,0,VALID,19.6117,VALID,143,VALID,0.887607,
2007-05-07, 03:21:00,VALID,916.1,VALID,0,VALID,100,VALID,0,VALID,19.6117,VALID,140,VALID,1.04647,
2007-05-07, 03:22:00,VALID,916.089,VALID,0,VALID,100,VALID,0,VALID,19.6249,VALID,136,VALID,0.707227,
2007-05-07, 03:23:00,VALID,916.08,VALID,0,VALID,100,VALID,-0.0509425,VALID,19.6352,VALID,117,VALID,0.695313,
2007-05-07, 03:24:00,VALID,916.067,VALID,0,VALID,100,VALID,0,VALID,19.6284,VALID,103,VALID,0.786701,
2007-05-07, 03:25:00,VALID,916.074,VALID,0,VALID,100,VALID,0,VALID,19.6279,VALID,102,VALID,0.757267,
2007-05-07, 03:26:00,VALID,916.072,VALID,0,VALID,100,VALID,-0.0169808,VALID,19.6282,VALID,98,VALID,0.754542,
2007-05-07, 03:27:00,VALID,916.057,VALID,0,VALID,100,VALID,0,VALID,19.6344,VALID,99,VALID,0.626453,
2007-05-07, 03:28:00,VALID,916.055,VALID,0,VALID,100,VALID,-0.0169808,VALID,19.6344,VALID,99,VALID,0.80923,
2007-05-07, 03:29:00,VALID,916.059,VALID,0,VALID,100,VALID,-0.0849042,VALID,19.6324,VALID,104,VALID,0.707304,
2007-05-07, 03:30:00,VALID,916.05,VALID,0,VALID,100,VALID,-0.118866,VALID,19.6229,VALID,118,VALID,0.536458,
2007-05-07, 03:31:00,VALID,916.048,VALID,0,VALID,100,VALID,-0.118866,VALID,19.6297,VALID,114,VALID,0.573602,
2007-05-07, 03:32:00,VALID,916.042,VALID,0,VALID,100,VALID,-0.135847,VALID,19.6424,VALID,114,VALID,0.431108,
2007-05-07, 03:33:00,VALID,916.037,VALID,0,VALID,100,VALID,-0.135847,VALID,19.6718,VALID,105,VALID,0.318537,
2007-05-07, 03:34:00,VALID,916.028,VALID,0,VALID,100,VALID,-0.101885,VALID,19.6878,VALID,93,VALID,0.300495,